Regional Weather Roundup
Issued by NWS Wakefield, VA

Home | Current Version | Previous Version | Graphics & Text | Print | Product List | Glossary On
Versions: 1 2 3 4 5 6 7 8 9 10 11 12 13 14 15 16 17 18 19 20 21 22 23 24 25 26 27 28 29 30 31 32 33 34 35 36 37 38 39 40 41 42 43 44 45 46 47 48 49 50
000
ASUS41 KAKQ 191710
RWRAKQ

REGIONAL WEATHER ROUNDUP
NATIONAL WEATHER SERVICE WAKEFIELD VA
1200 PM EST FRI DEC 19 2014

Note: "fair" indicates few or no clouds below 12,000 feet with no
significant weather and/or obstructions to visibility. * = Denotes
station may not report precipitation (e.g., rain,snow,etc.),
thunder or fog.

VAZ042-051-052>054-056-191800-
NORTHERN VIRGINIA

CITY           SKY/WX    TMP DP  RH WIND       PRES   REMARKS
WASH NATIONAL  CLOUDY    40  24  53 NW13      30.17F
DULLES         CLOUDY    36  23  59 NW10      30.16F
FORT BELVOIR   CLOUDY    38  23  54 NW15      30.17F
QUANTICO       PTSUNNY   38  22  52 NW14      30.19F
FREDERICKSBRG* MOSUNNY   42  26  53 N8        30.16F
STAFFORD*      MOSUNNY   40  24  52 NW14G20   30.21F
WARRENTON      PTSUNNY   39  29  67 NW16      30.16F
CULPEPER*      PTSUNNY   41  25  52 N6        30.17F
MANASSAS*      CLOUDY    37  25  60 NW18      30.17F
LEESBURG*      CLOUDY    37  28  70 N13       30.16F
WINCHESTER     CLOUDY    36  21  55 NW12G23   30.16F
FRONT ROYAL*   CLOUDY    34  23  64 NW6       30.16F
LURAY*         PTSUNNY   37  28  70 W6        30.15F
$$

VAZ048-049-060>072-079>083-191800-
CENTRAL AND SOUTH CENTRAL VIRGINIA

CITY           SKY/WX    TMP DP  RH WIND       PRES   REMARKS
RICHMOND       SUNNY     42  23  46 NW7       30.16F
CHESTERFIELD*  SUNNY     43  19  39 NW3       30.17F
PETERSBURG*    SUNNY     43  25  49 NW5       30.16F
HANOVER        SUNNY     41  23  48 CALM      30.18F
TAPPAHANNOCK*  SUNNY     42  20  42 NW9       30.16F
QUINTON*       SUNNY     40  24  53 N5        30.16F
CHARLOTTSVILLE SUNNY     42  24  49 VRB6      30.13F
GORDONSVILLE*  SUNNY     40  24  53 CALM      30.14F
ORANGE*        SUNNY     41  27  56 NE3       30.16F
LOUISA*        SUNNY     43  27  52 N6        30.14F
BUMPASS*       MOSUNNY   39  25  57 NE3       30.16F
FARMVILLE*     SUNNY     50  28  42 CALM      30.14F
CREWE*         SUNNY     42  24  47 CALM      30.15F
FORT PICKETT*  SUNNY     42  24  49 NW6       30.14F
CHASE CITY*    SUNNY     44  27  51 NW5       30.14F
CLARKSVILLE*   SUNNY     43  27  52 CALM      30.15F
SOUTH HILL*    SUNNY     42  25  51 CALM      30.21F
LAWRENCEVILLE* SUNNY     43  28  55 CALM      30.15F
EMPORIA*       SUNNY     41  27  56 CALM      30.18F
$$

VAZ088>098-191800-
SOUTHEAST VIRGINIA

CITY           SKY/WX    TMP DP  RH WIND       PRES   REMARKS
NORFOLK        SUNNY     42  26  53 N8        30.15F
VIRGINIA BEACH MOSUNNY   44  27  51 N14       30.15F
NORFOLK NAVAL  MOSUNNY   45  26  47 N9        30.17F
WEST POINT*    SUNNY     44  23  42 NW7       30.18F
SALUDA*        FAIR      40  26  55 NW6       30.15F
NEWPORT NEWS   SUNNY     46  26  45 N12       30.15F
LANGLEY AFB    SUNNY     37  28  70 N6        30.11S
FORT EUSTIS    SUNNY     42  26  51 NW7       30.14F
WILLIAMSBURG*  SUNNY     48  28  46 NW6       30.16F
HR EXEC AP*    SUNNY     43  27  52 N3        30.18F
FRANKLIN*      SUNNY     43  25  49 N5        30.16F
WAKEFIELD      SUNNY     44  25  47 NW6       30.16F
$$

VAZ020-022-025-037-045-191800-
WEST CENTRAL AND SOUTHWEST VIRGINIA

CITY           SKY/WX    TMP DP  RH WIND       PRES   REMARKS
STAUNTON*      SUNNY     38  25  57 NE3       30.14F
WAYNESBORO*    SUNNY     36  24  62 CALM      30.11F
HOT SPRINGS VA SUNNY     29  21  71 W14       30.00F WCI  19
LYNCHBURG      SUNNY     43  23  45 VRB5      30.14F
DANVILLE       SUNNY     47  24  40 NW8       30.15F
SOUTH BOSTON*  SUNNY     44  22  41 N3        30.15F
MARTINSVILLE   SUNNY     49  24  37 N5        30.16F
ROANOKE        MOSUNNY   43  22  43 W14       30.15F
BLACKSBURG     SUNNY     35  22  60 W8G16     30.16F
DUBLIN*        SUNNY     39  26  59 NW6       30.15F
MARION*        SUNNY     40  21  45 W6        30.15F
HILLSVILLE*    SUNNY     37  21  52 NW16      30.10F
RICHLANDS*     MOSUNNY   34  20  58 CALM      30.14F
WISE*          MOSUNNY   34  25  69 CALM      30.16S
ABINGDON*      PTSUNNY   41  20  41 W5        30.16F
$$

MDZ021>025-VAZ099-100-191800-
SOUTHERN MARYLAND AND THE DELMARVA PENINSULA

CITY           SKY/WX    TMP DP  RH WIND       PRES   REMARKS
PATUXENT RIVER CLOUDY    38  23  55 NW15      30.15F
BAY BRIDGE APT   N/A     37  25  60 NW9       30.14F
LEONARDTOWN    CLOUDY    36  23  60 NW7       30.17F
DOVER          CLOUDY    38  25  59 NW14      30.08F
GEORGETOWN     CLOUDY    39  25  57 NW7       30.12F
EASTON         CLOUDY    39  28  65 NW9G16    30.17F
CAMBRIDGE      NOT AVBL
SALISBURY      CLOUDY    39  26  59 NW13      30.13F
OCEAN CITY     CLOUDY    39  26  59 NW13G21   30.11F
WALLOPS ISLAND PTSUNNY   38  26  62 N15G23    30.13F
ACCOMACK*      CLOUDY    39  27  60 NW7G22    30.14F
$$

NCZ012>017-030>032-191800-
NORTH CENTRAL AND EASTERN NORTH CAROLINA

CITY           SKY/WX    TMP DP  RH WIND       PRES   REMARKS
ROANOKE RAPIDS SUNNY     43  28  56 NW6       30.16F
RALEIGH        MOSUNNY   49  22  34 VRB7      30.15F
ELIZABETH CITY SUNNY     48  29  47 N6        30.15F
AHOSKIE*       SUNNY     42  26  52 CALM      30.17F
EDENTON*       SUNNY     46  30  55 NW6       30.16F
CURRITUCK*     SUNNY     44  26  49 N7        30.15F
KILL DEVIL HLS SUNNY     44  32  64 N8        30.12F
MANTEO         SUNNY     44  31  60 NW7       30.14F
CAPE HATTERAS  SUNNY     47  37  68 N8        30.13F
TARBORO*       NOT AVBL
GOLDSBORO      SUNNY     49  30  48 N2        30.14F
WASHINGTON     SUNNY     46  29  52 NE6       30.16F
GREENVILLE     SUNNY     45  32  61 N5        30.17F
NEW BERN       SUNNY     52  27  38 NW7       30.15F
WILMINGTON     SUNNY     56  23  27 N8        30.13F
$$

VAZ048-191800-
ELSEWHERE

CITY           SKY/WX    TMP DP  RH WIND       PRES   REMARKS
HARRISBURG PA  PTSUNNY   38  22  52 NW17      30.10F
BALTIMORE      PTSUNNY   37  23  56 NW8       30.13F
ANNAPOLIS      CLOUDY    38  24  57 NW12      30.14F
ANDREWS AFB    CLOUDY    37  24  58 NW15G21   30.14F
PHILADELPHIA   CLOUDY    39  23  52 NW16      30.09F
HENDERSON NC   SUNNY     44  22  41 CALM      30.14F
GREENSBORO     MOSUNNY   49  19  30 NW6       30.13F
ROCKY MOUNT    SUNNY     45  27  49 N7        30.16F
$$

VAZ100-191800-
MARINE

STATION/POSITION TIME  TEMP    WIND        PRES    WAVE   SWELL
                       AIR SEA DIR/SP/G            HT/PER HT/PER
                 (UTC) (F)     (DEG/KT/KT) (MB)    (FT/S) (FT/S)
CAPE MAY NJ      1700   38 41  310/ 14/ 19 1018.6F
LEWES DE         1700   38 42  300/ 15/ 18 1019.2F
15NM E FENWICK I 1700   39 47              1018.8F   3/ 4
OCEAN-CITY-INLET 1700   38 45  330/ 13/ 21 1019.1F
WACHAPREAGUE VA  1700   39 42  320/ 12/ 18 1020.3S
THOMAS POINT MD  1700   37 41  310/ 14/ 16 1021.6F
GOOSES REEF MD   1700   37     VRB 14/ 17  1020.1F   1/ 2
COVE POINT MD    1700   36     340/ 14/ 17 1021.0F
SOLOMONS ISLAND  1700      44                N/A
BISHOPS HEAD MD  1700   37 39  320/ 11/ 17 1020.5S
PINEY POINT MD   1700          340/ 17/ 20   N/A
POTOMAC MD       1700   38 44  330/ 12/ 16 1020.2F   2/ 3
CAMBRIDGE MD     1700   37 40  300/ 11/ 14 1020.5F
LEWISETTA VA     1700   38 42  350/ 12/ 19 1021.0F
RAPPAHANNOCK LGT 1700          340/ 20/ 22 1021.2R
STINGRAY PT      1700   40 44  350/ 10/ 14 1021.4F   2/ 3
YORK RVR RNG VA  1700   39     350/ 11/ 13 1020.7R
YORKTOWN VA      1700   40 45  300/ 10/ 11 1021.1R
JAMESTOWN VA     1700   39 46  340/ 10/ 12   N/A     0
DOMINION TERM VA 1700   41     310/  9/ 11 1021.1F
KIPTOPEKE VA     1700      49  340/ 16/ 20   N/A
CHES BAY BRIDGE  1700   39 46  340/ 13/ 15 1020.7F
CAPE HENRY VA    1700   38     330/ 15/ 17 1019.7F
CHESAPEAKE LGHT  1600   39     340/ 14/ 16 1021.5F
WILLOUBY STN VA  1700   40     350/  8/ 10 1021.6S
S CRANEY ISL VA  1700           10/  5/  7 1021.2R
CAPE HENRY BUOY  1600      48                N/A     3/ 4
1ST LANDING BUOY 1700   40 45  350/ 14/ 17 1020.6F   2/ 2
CAPE CHARLES BUO 1700      48                N/A     2/ 4   2/11
64NM E OF VA BCH 1700   42 55  320/ 16/ 21 1019.6F   3/ 5   2/10
DUCK PIER NC     1700   41 47   10/  9/ 13 1019.9F
44100 DUCK FRF   1700      51                N/A     3/ 5
44056 DUCK FRF   1700      48                N/A     3/ 5
OREGON INLET NC  1700   44 50  360/ 10/ 14 1020.5F
HATTERAS NC      1700   45 53  350/ 10/ 12 1020.7F
DIAMOND SHLS NC  1700   49                 1020.4    2/ 8
CAPE LOOKOUT NC  1600   49     340/  9/ 10 1021.0F
$$


USA.gov is the U.S. government's official web portal to all federal, state and local government web resources and services.